Terug naar catalogus

DELTA 1 DEB

ActiefSSO
NORAD 13569·DEBRIS·🇺🇸 United States

Gelanceerd Mar 5, 1978 vanaf Vandenberg Space Force Base

Loading…

Volgende Passages (komende 24 uur)

TLE

VersSource: Space-Track

Epoch: Sep 13, 2026, 20:21 UTC

1 13569U 78026FG  26256.84825692  .00001493  00000-0  66968-3 0  9997
2 13569  99.0797   4.1051 0094285 323.0543 163.4010 14.21757123295820

Volg DELTA 1 DEB in realtime met AllMySat

Download on the App Store